Hourly Data Report for October 11, 2014

All times are specified in Local Standard Time (LST). Add 1 hour to adjust for Daylight Saving Time where and when it is observed.

QIKIQTARJUAQ A
NUNAVUT

67°32'48.000" N
64°01'54.000" W
5.50 m
2400577
YVM

Download Data

Hourly Data (October 2014)
Hourly Data Report for October 11, 2014
Temp Definition
°C
Dew Point Temp Definition
°C
Rel Hum Definition
%
Wind Dir Definition
10's deg

Wind Spd Definition
km/h
Visibility Definition
km
Stn Press Definition
kPa
Hmdx Definition


Wind Chill Definition


Weather Definition


TIME
00:00 Legend Double Dagger -1.9 -3.5 89 20 17 16.1 99.79   -7 LegendNANA
01:00 Legend Double Dagger -1.3 -3.2 87 19 13 16.1 99.78   -6 LegendNANA
02:00 Legend Double Dagger -1.1 -2.4 91 18 11 16.1 99.76   -5 LegendNANA
03:00 Legend Double Dagger -1.1 -2.4 91 20 5 16.1 99.75   -3 LegendNANA
04:00 Legend Double Dagger -0.6 -1.9 91 21 11 16.1 99.76   -4 LegendNANA
05:00 Legend Double Dagger -0.1 -2.2 86 21 8 16.1 99.75   -3 LegendNANA
06:00 Legend Double Dagger -1.2 -3.0 88 21 11 16.1 99.77   -5 LegendNANA
07:00 Legend Double Dagger 0.3 -1.8 86 20 13 16.1 99.82     LegendNANA
08:00 Legend Double Dagger 0.2 -2.2 84 12 5 16.1 99.91     LegendNANA
09:00 Legend Double Dagger 0.7 -1.5 85 LegendMM 4 16.1 99.92     LegendNANA
10:00 Legend Double Dagger 0.4 -1.7 86 21 24 16.1 99.93     LegendNANA
11:00 Legend Double Dagger 0.7 -1.9 83 20 26 16.1 99.90     LegendNANA
12:00 Legend Double Dagger 1.7 -1.5 80 LegendMM 4 16.1 99.96     LegendNANA
13:00 Legend Double Dagger 1.9 -1.0 81 22 5 16.1 100.04     LegendNANA
14:00 Legend Double Dagger 0.9 -1.0 87 LegendMM 4 16.1 100.03     LegendNANA
15:00 Legend Double Dagger -0.9 -2.2 91 LegendMM 4 16.1 100.03   -2 LegendNANA
16:00 Legend Double Dagger -1.9 -2.6 95   0 16.1 100.06     LegendNANA
17:00 Legend Double Dagger -1.7 -2.1 97 15 5 16.1 100.07   -4 LegendNANA
18:00 Legend Double Dagger -0.2 -1.2 93 14 5 16.1 100.03   -2 LegendNANA
19:00 Legend Double Dagger -1.3 -2.0 95 11 9 16.1 100.03   -5 LegendNANA
20:00 Legend Double Dagger 0.3 -0.6 94 34 8 16.1 100.01     LegendNANA
21:00 Legend Double Dagger 1.2 0.3 94 LegendMM 4 16.1 99.93     Rain
22:00 Legend Double Dagger 1.8 0.9 94 13 17 11.3 99.81     Rain
23:00 Legend Double Dagger 2.1 0.8 91 LegendMM 8 2.4 99.69     Rain,Fog

Notes on Data Quality.

Legend

  • E = Estimated
  • M = Missing
  • NA = Not Available
  • ‡ = Partner data that is not subject to review by the National Climate Archives
Date modified: